This is the latest recevied weather packets stored in our database for station/object KB4RFE. If no packets are shown the sender has not sent any weather packets the latest 10 day(s).
| Time | Temp. | Humidity | Pressure | Rain* | Wind** | Luminosity | Snow |
|---|---|---|---|---|---|---|---|
| 1788184949 | 30° C | 77% | 1022.6 hPa | 0 mm | - | 288 W/m² | - |
| 1788184646 | 30° C | 77% | 1022.6 hPa | 0 mm | - | 464 W/m² | - |
| 1788184343 | 29.44° C | 79% | 1022.4 hPa | 0 mm | - | 494 W/m² | - |
| 1788184038 | 28.89° C | 79% | 1022.2 hPa | 0 mm | - | 333 W/m² | - |
| 1788183734 | 28.33° C | 80% | 1022.4 hPa | 0 mm | - | 280 W/m² | - |
| 1788183433 | 28.33° C | 82% | 1022.5 hPa | 0 mm | - | 276 W/m² | - |
| 1788183127 | 28.33° C | 82% | 1022.5 hPa | 0 mm | - | 111 W/m² | - |
| 1788182823 | 27.78° C | 83% | 1022.5 hPa | 0 mm | - | 231 W/m² | - |
| 1788182522 | 27.78° C | 83% | 1022.3 hPa | 0 mm | - | 206 W/m² | - |
| 1788182217 | 27.22° C | 84% | 1022.4 hPa | 0 mm | - | 77 W/m² | - |
| 1788181914 | 27.22° C | 86% | 1022.4 hPa | 0 mm | - | 50 W/m² | - |
| 1788181609 | 27.22° C | 86% | 1022.4 hPa | 0 mm | - | 45 W/m² | - |
| 1788181305 | 26.67° C | 86% | 1022.3 hPa | 0 mm | - | 43 W/m² | - |
| 1788181003 | 26.67° C | 86% | 1022.3 hPa | 0 mm | - | 46 W/m² | - |
| 1788180698 | 26.67° C | 87% | 1022.4 hPa | 0 mm | - | 42 W/m² | - |
| 1788180394 | 26.67° C | 89% | 1022.4 hPa | 0 mm | - | 39 W/m² | - |
| 1788180090 | 26.11° C | 89% | 1022.4 hPa | 0 mm | - | 39 W/m² | - |
| 1788179790 | 26.11° C | 91% | 1022.3 hPa | 0 mm | - | 73 W/m² | - |
| 1788179489 | 25.56° C | 92% | 1022.1 hPa | 0 mm | - | 39 W/m² | - |
| 1788179188 | 25.56° C | 94% | 1022.3 hPa | 0 mm | - | 35 W/m² | - |
| 1788178884 | 25° C | 95% | 1022.2 hPa | 0 mm | - | 34 W/m² | - |
| 1788178583 | 25° C | 96% | 1022.1 hPa | 0 mm | - | 32 W/m² | - |
| 1788178281 | 25° C | 96% | 1022.2 hPa | 0 mm | - | 31 W/m² | - |
| 1788177981 | 25° C | 97% | 1022.2 hPa | 0 mm | - | 30 W/m² | - |
| 1788177676 | 24.44° C | 97% | 1022 hPa | 0 mm | - | 29 W/m² | - |
* Rain latest hour (hover to see other rain measurements)
** Current wind speed in m/s (hover to see current wind gust speed)